This is the latest recevied weather packets stored in our database for station/object VK6HGR-1. If no packets are shown the sender has not sent any weather packets the latest 10 day(s).
| Time | Temp. | Humidity | Pressure | Rain* | Wind** | Luminosity | Snow |
|---|---|---|---|---|---|---|---|
| 1777947310 | 20° C | 56% | 1024 hPa | - | - | - | - |
| 1777946411 | 18.89° C | 54% | 1024.1 hPa | - | - | - | - |
| 1777945510 | 18.33° C | 57% | 1024.1 hPa | - | - | - | - |
| 1777944613 | 17.78° C | 58% | 1024.2 hPa | - | - | - | - |
| 1777943710 | 17.22° C | 60% | 1024.3 hPa | - | - | - | - |
| 1777942811 | 16.11° C | 62% | 1024.2 hPa | - | - | - | - |
| 1777941910 | 15.56° C | 64% | 1024.3 hPa | - | - | - | - |
| 1777941012 | 15° C | 66% | 1024.2 hPa | - | - | - | - |
| 1777940111 | 13.89° C | 68% | 1024.1 hPa | - | - | - | - |
| 1777939212 | 13.33° C | 69% | 1024 hPa | - | - | - | - |
| 1777938314 | 13.33° C | 70% | 1023.8 hPa | - | - | - | - |
| 1777937411 | 12.78° C | 71% | 1023.6 hPa | - | - | - | - |
| 1777936510 | 12.78° C | 72% | 1023.5 hPa | - | - | - | - |
| 1777935611 | 12.78° C | 71% | 1023.4 hPa | - | - | - | - |
| 1777934725 | 12.78° C | 71% | 1023.1 hPa | - | - | - | - |
| 1777933811 | 12.78° C | 71% | 1022.8 hPa | - | - | - | - |
| 1777932912 | 12.78° C | 70% | 1022.7 hPa | - | - | - | - |
| 1777932010 | 13.33° C | 70% | 1022.7 hPa | - | - | - | - |
| 1777931111 | 13.33° C | 70% | 1022.6 hPa | - | - | - | - |
| 1777930212 | 13.33° C | 70% | 1022.6 hPa | - | - | - | - |
| 1777929311 | 13.33° C | 70% | 1022.6 hPa | - | - | - | - |
| 1777928412 | 13.33° C | 70% | 1022.6 hPa | - | - | - | - |
| 1777927511 | 13.33° C | 70% | 1022.7 hPa | - | - | - | - |
| 1777926620 | 13.33° C | 69% | 1022.6 hPa | - | - | - | - |
| 1777925711 | 13.33° C | 70% | 1022.6 hPa | - | - | - | - |
* Rain since midnight (hover to see other rain measurements)
** Current wind speed in m/s (hover to see current wind gust speed)